Time,TemperatureF,DewpointF,PressureIn,WindDirection,WindDirectionDegrees,WindSpeedMPH,WindSpeedGustMPH,Humidity,HourlyPrecipIn,Conditions,Clouds,dailyrainin,SolarRadiationWatts/m^2,SoftwareType,DateUTC
2013-01-13 00:11:00,54.0,53.0,30.08,SSW,205,0.0,0.0,96,0.00,,,0.00,0,weatherlink.com 1.10,2013-01-13 05:11:00,
2013-01-13 00:25:00,53.4,52.0,30.08,SSW,205,0.0,0.0,96,0.00,,,0.00,0,weatherlink.com 1.10,2013-01-13 05:25:00,
2013-01-13 00:41:00,53.7,53.0,30.07,SSW,205,0.0,0.0,97,0.00,,,0.00,0,weatherlink.com 1.10,2013-01-13 05:41:00,
2013-01-13 00:56:00,53.7,53.0,30.08,SSW,205,0.0,0.0,97,0.00,,,0.00,0,weatherlink.com 1.10,2013-01-13 05:56:00,
2013-01-13 01:10:00,54.1,53.0,30.08,SSW,205,0.0,0.0,97,0.00,,,0.00,0,weatherlink.com 1.10,2013-01-13 06:10:00,
2013-01-13 01:27:00,54.4,54.0,30.07,SSW,205,0.0,0.0,97,0.00,,,0.00,0,weatherlink.com 1.10,2013-01-13 06:27:00,
2013-01-13 01:41:00,53.9,53.0,30.08,SSW,205,0.0,0.0,97,0.00,,,0.00,0,weatherlink.com 1.10,2013-01-13 06:41:00,
2013-01-13 01:56:00,53.3,53.0,30.09,SSW,205,0.0,0.0,97,0.00,,,0.00,0,weatherlink.com 1.10,2013-01-13 06:56:00,
2013-01-13 02:11:00,53.2,52.0,30.09,SSW,205,0.0,0.0,97,0.00,,,0.00,0,weatherlink.com 1.10,2013-01-13 07:11:00,
2013-01-13 02:27:00,53.4,53.0,30.09,SSW,205,0.0,0.0,97,0.00,,,0.00,0,weatherlink.com 1.10,2013-01-13 07:27:00,
2013-01-13 02:42:00,53.7,53.0,30.09,SSW,205,0.0,0.0,97,0.00,,,0.00,0,weatherlink.com 1.10,2013-01-13 07:42:00,
2013-01-13 02:56:00,53.8,53.0,30.08,SSW,205,0.0,0.0,97,0.00,,,0.00,0,weatherlink.com 1.10,2013-01-13 07:56:00,
2013-01-13 03:12:00,54.1,53.0,30.08,SSW,205,0.0,0.0,97,0.00,,,0.00,0,weatherlink.com 1.10,2013-01-13 08:12:00,
2013-01-13 03:27:00,53.8,53.0,30.07,SSW,205,0.0,0.0,97,0.00,,,0.00,0,weatherlink.com 1.10,2013-01-13 08:27:00,
2013-01-13 03:42:00,53.8,53.0,30.07,SSW,205,0.0,0.0,97,0.00,,,0.00,0,weatherlink.com 1.10,2013-01-13 08:42:00,
2013-01-13 03:57:00,53.6,53.0,30.07,SSW,205,0.0,0.0,97,0.00,,,0.00,0,weatherlink.com 1.10,2013-01-13 08:57:00,
2013-01-13 04:11:00,53.8,53.0,30.07,SSW,205,0.0,0.0,97,0.00,,,0.00,0,weatherlink.com 1.10,2013-01-13 09:11:00,
2013-01-13 04:27:00,53.9,53.0,30.07,SSW,205,0.0,0.0,97,0.00,,,0.00,0,weatherlink.com 1.10,2013-01-13 09:27:00,
2013-01-13 04:42:00,54.3,54.0,30.06,SSW,205,0.0,0.0,98,0.00,,,0.00,0,weatherlink.com 1.10,2013-01-13 09:42:00,
2013-01-13 04:57:00,55.0,55.0,30.06,SSW,205,0.0,1.0,98,0.00,,,0.00,0,weatherlink.com 1.10,2013-01-13 09:57:00,
2013-01-13 05:13:00,55.3,55.0,30.06,SSW,205,0.0,0.0,98,0.00,,,0.00,0,weatherlink.com 1.10,2013-01-13 10:13:00,
2013-01-13 05:27:00,55.6,55.0,30.06,SSW,205,0.0,3.0,98,0.00,,,0.00,0,weatherlink.com 1.10,2013-01-13 10:27:00,
2013-01-13 05:42:00,55.7,55.0,30.07,SSW,205,0.0,2.0,98,0.00,,,0.00,0,weatherlink.com 1.10,2013-01-13 10:42:00,
2013-01-13 05:57:00,55.5,55.0,30.06,SSW,205,0.0,3.0,98,0.00,,,0.00,0,weatherlink.com 1.10,2013-01-13 10:57:00,
2013-01-13 06:13:00,55.4,55.0,30.07,SE,135,0.0,4.0,98,0.00,,,0.00,0,weatherlink.com 1.10,2013-01-13 11:13:00,
2013-01-13 06:27:00,55.3,55.0,30.07,SE,135,0.0,0.0,98,0.00,,,0.00,0,weatherlink.com 1.10,2013-01-13 11:27:00,
2013-01-13 06:42:00,55.2,55.0,30.08,SE,135,0.0,1.0,98,0.00,,,0.00,0,weatherlink.com 1.10,2013-01-13 11:42:00,
2013-01-13 06:58:00,55.0,55.0,30.08,SE,135,0.0,0.0,98,0.00,,,0.00,0,weatherlink.com 1.10,2013-01-13 11:58:00,
2013-01-13 07:12:00,54.8,54.0,30.08,SE,135,0.0,0.0,98,0.00,,,0.00,0,weatherlink.com 1.10,2013-01-13 12:12:00,
2013-01-13 07:29:00,54.6,54.0,30.09,SE,135,0.0,0.0,98,0.00,,,0.00,0,weatherlink.com 1.10,2013-01-13 12:29:00,
2013-01-13 07:43:00,54.5,54.0,30.09,SE,135,0.0,0.0,98,0.00,,,0.00,16,weatherlink.com 1.10,2013-01-13 12:43:00,
2013-01-13 07:58:00,54.4,54.0,30.09,SE,135,0.0,0.0,98,0.00,,,0.00,26,weatherlink.com 1.10,2013-01-13 12:58:00,
2013-01-13 08:14:00,54.5,54.0,30.10,SE,135,0.0,0.0,98,0.00,,,0.00,42,weatherlink.com 1.10,2013-01-13 13:14:00,
2013-01-13 08:28:00,54.7,54.0,30.10,SE,135,0.0,0.0,98,0.00,,,0.00,39,weatherlink.com 1.10,2013-01-13 13:28:00,
2013-01-13 08:44:00,55.1,55.0,30.10,SE,136,1.0,3.0,98,0.00,,,0.00,139,weatherlink.com 1.10,2013-01-13 13:44:00,
2013-01-13 08:59:00,55.6,55.0,30.10,SE,144,1.0,5.0,98,0.00,,,0.00,130,weatherlink.com 1.10,2013-01-13 13:59:00,
2013-01-13 09:13:00,56.2,56.0,30.10,ESE,122,0.0,3.0,98,0.00,,,0.00,193,weatherlink.com 1.10,2013-01-13 14:13:00,
2013-01-13 09:29:00,57.5,57.0,30.11,SW,225,3.0,7.0,98,0.00,,,0.00,294,weatherlink.com 1.10,2013-01-13 14:29:00,
2013-01-13 09:43:00,58.9,58.0,30.11,SW,216,0.0,2.0,98,0.00,,,0.00,294,weatherlink.com 1.10,2013-01-13 14:43:00,
2013-01-13 10:00:00,60.0,60.0,30.11,South,182,0.0,4.0,98,0.00,,,0.00,269,weatherlink.com 1.10,2013-01-13 15:00:00,
2013-01-13 10:14:00,60.9,60.0,30.11,WSW,250,1.0,5.0,98,0.00,,,0.00,234,weatherlink.com 1.10,2013-01-13 15:14:00,
2013-01-13 10:28:00,62.0,62.0,30.11,South,169,2.0,6.0,98,0.00,,,0.00,302,weatherlink.com 1.10,2013-01-13 15:28:00,
2013-01-13 10:45:00,63.9,62.0,30.10,West,267,1.0,6.0,93,0.00,,,0.00,476,weatherlink.com 1.10,2013-01-13 15:45:00,
2013-01-13 10:59:00,66.2,62.0,30.09,SSW,202,2.0,6.0,87,0.01,,,0.01,489,weatherlink.com 1.10,2013-01-13 15:59:00,
2013-01-13 11:15:00,67.3,62.0,30.08,SSE,162,3.0,8.0,83,0.01,,,0.01,578,weatherlink.com 1.10,2013-01-13 16:15:00,
2013-01-13 11:29:00,70.5,63.0,30.07,SSW,200,1.0,7.0,77,0.01,,,0.01,566,weatherlink.com 1.10,2013-01-13 16:29:00,
2013-01-13 11:44:00,70.1,63.0,30.06,SSW,201,2.0,11.0,77,0.01,,,0.01,527,weatherlink.com 1.10,2013-01-13 16:44:00,
2013-01-13 12:00:00,71.8,63.0,30.05,South,181,4.0,8.0,74,0.00,,,0.01,563,weatherlink.com 1.10,2013-01-13 17:00:00,
2013-01-13 12:15:00,71.3,63.0,30.05,SW,225,0.0,10.0,75,0.00,,,0.01,434,weatherlink.com 1.10,2013-01-13 17:15:00,
2013-01-13 12:30:00,71.9,63.0,30.04,SW,220,5.0,8.0,74,0.00,,,0.01,582,weatherlink.com 1.10,2013-01-13 17:30:00,
2013-01-13 12:45:00,72.6,63.0,30.04,South,177,4.0,10.0,71,0.00,,,0.01,450,weatherlink.com 1.10,2013-01-13 17:45:00,
2013-01-13 13:00:00,72.8,63.0,30.03,South,174,5.0,9.0,71,0.00,,,0.01,540,weatherlink.com 1.10,2013-01-13 18:00:00,
2013-01-13 13:15:00,73.4,63.0,30.03,South,189,1.0,9.0,70,0.00,,,0.01,171,weatherlink.com 1.10,2013-01-13 18:15:00,
2013-01-13 13:30:00,73.6,63.0,30.02,South,189,4.0,6.0,69,0.00,,,0.01,221,weatherlink.com 1.10,2013-01-13 18:30:00,
2013-01-13 13:44:00,72.9,63.0,30.02,WSW,258,5.0,9.0,70,0.00,,,0.01,204,weatherlink.com 1.10,2013-01-13 18:44:00,
2013-01-13 13:59:00,73.5,63.0,30.02,SSW,199,1.0,9.0,69,0.00,,,0.01,190,weatherlink.com 1.10,2013-01-13 18:59:00,
2013-01-13 14:14:00,73.1,63.0,30.02,SE,144,7.0,12.0,70,0.00,,,0.01,417,weatherlink.com 1.10,2013-01-13 19:14:00,
2013-01-13 14:29:00,73.4,62.0,30.02,SSW,199,5.0,7.0,68,0.00,,,0.01,199,weatherlink.com 1.10,2013-01-13 19:29:00,
2013-01-13 14:44:00,73.7,62.0,30.02,SW,232,0.0,8.0,68,0.00,,,0.01,294,weatherlink.com 1.10,2013-01-13 19:44:00,
2013-01-13 14:59:00,73.2,62.0,30.03,SSW,196,3.0,7.0,69,0.00,,,0.01,223,weatherlink.com 1.10,2013-01-13 19:59:00,
2013-01-13 15:15:00,74.2,63.0,30.03,South,186,0.0,6.0,68,0.00,,,0.01,181,weatherlink.com 1.10,2013-01-13 20:15:00,
2013-01-13 15:29:00,74.3,62.0,30.03,SSW,196,3.0,11.0,65,0.00,,,0.01,160,weatherlink.com 1.10,2013-01-13 20:29:00,
2013-01-13 15:44:00,74.0,62.0,30.03,SW,219,6.0,9.0,66,0.00,,,0.01,149,weatherlink.com 1.10,2013-01-13 20:44:00,
2013-01-13 15:59:00,73.3,62.0,30.03,SSW,206,2.0,10.0,67,0.00,,,0.01,95,weatherlink.com 1.10,2013-01-13 20:59:00,
2013-01-13 16:14:00,72.9,61.0,30.03,SSW,212,2.0,9.0,67,0.00,,,0.01,100,weatherlink.com 1.10,2013-01-13 21:14:00,
2013-01-13 16:29:00,72.6,61.0,30.04,SW,217,2.0,7.0,68,0.00,,,0.01,81,weatherlink.com 1.10,2013-01-13 21:29:00,
2013-01-13 16:44:00,72.4,62.0,30.04,South,184,4.0,7.0,69,0.00,,,0.01,44,weatherlink.com 1.10,2013-01-13 21:44:00,
2013-01-13 17:00:00,71.8,62.0,30.04,SW,218,3.0,5.0,70,0.00,,,0.01,39,weatherlink.com 1.10,2013-01-13 22:00:00,
2013-01-13 17:15:00,71.2,61.0,30.05,SW,216,0.0,3.0,71,0.00,,,0.01,5,weatherlink.com 1.10,2013-01-13 22:15:00,
2013-01-13 17:30:00,69.7,61.0,30.04,SW,216,0.0,3.0,74,0.00,,,0.01,0,weatherlink.com 1.10,2013-01-13 22:30:00,
2013-01-13 17:45:00,69.0,61.0,30.04,South,172,0.0,3.0,75,0.00,,,0.01,0,weatherlink.com 1.10,2013-01-13 22:45:00,
2013-01-13 18:00:00,68.2,61.0,30.03,South,172,0.0,1.0,77,0.00,,,0.01,0,weatherlink.com 1.10,2013-01-13 23:00:00,
2013-01-13 18:15:00,67.8,61.0,30.03,South,171,0.0,0.0,78,0.00,,,0.01,0,weatherlink.com 1.10,2013-01-13 23:15:00,
2013-01-13 18:30:00,67.1,60.0,30.03,South,171,0.0,0.0,79,0.00,,,0.01,0,weatherlink.com 1.10,2013-01-13 23:30:00,
2013-01-13 18:45:00,66.5,60.0,30.04,SW,224,1.0,3.0,80,0.00,,,0.01,0,weatherlink.com 1.10,2013-01-13 23:45:00,
2013-01-13 19:00:00,66.5,60.0,30.04,SSW,203,0.0,4.0,80,0.00,,,0.01,0,weatherlink.com 1.10,2013-01-14 00:00:00,
2013-01-13 19:15:00,66.5,60.0,30.04,SW,220,0.0,4.0,80,0.00,,,0.01,0,weatherlink.com 1.10,2013-01-14 00:15:00,
2013-01-13 19:30:00,66.2,60.0,30.03,SSW,213,1.0,4.0,81,0.00,,,0.01,0,weatherlink.com 1.10,2013-01-14 00:30:00,
2013-01-13 19:45:00,66.1,60.0,30.03,SSW,206,4.0,4.0,81,0.00,,,0.01,0,weatherlink.com 1.10,2013-01-14 00:45:00,
2013-01-13 20:00:00,66.1,60.0,30.03,SW,227,0.0,4.0,81,0.00,,,0.01,0,weatherlink.com 1.10,2013-01-14 01:00:00,
2013-01-13 20:15:00,66.1,60.0,30.03,SSW,196,0.0,6.0,81,0.00,,,0.01,0,weatherlink.com 1.10,2013-01-14 01:15:00,
2013-01-13 20:30:00,66.0,60.0,30.03,SW,215,0.0,7.0,82,0.00,,,0.01,0,weatherlink.com 1.10,2013-01-14 01:30:00,
2013-01-13 20:45:00,66.1,61.0,30.03,SW,217,1.0,5.0,82,0.00,,,0.01,0,weatherlink.com 1.10,2013-01-14 01:45:00,
2013-01-13 21:00:00,66.1,61.0,30.02,SE,134,1.0,7.0,82,0.00,,,0.01,0,weatherlink.com 1.10,2013-01-14 02:00:00,
2013-01-13 21:15:00,66.2,60.0,30.02,South,190,1.0,8.0,81,0.00,,,0.01,0,weatherlink.com 1.10,2013-01-14 02:15:00,
2013-01-13 21:30:00,66.1,61.0,30.03,SW,234,0.0,7.0,82,0.00,,,0.01,0,weatherlink.com 1.10,2013-01-14 02:30:00,
2013-01-13 21:45:00,65.9,60.0,30.03,South,186,0.0,9.0,82,0.00,,,0.01,0,weatherlink.com 1.10,2013-01-14 02:45:00,
2013-01-13 22:00:00,66.0,60.0,30.04,SW,227,1.0,7.0,82,0.00,,,0.01,0,weatherlink.com 1.10,2013-01-14 03:00:00,
2013-01-13 22:15:00,66.2,61.0,30.04,South,188,3.0,13.0,82,0.00,,,0.01,0,weatherlink.com 1.10,2013-01-14 03:15:00,
2013-01-13 22:30:00,66.1,61.0,30.04,South,185,2.0,9.0,82,0.00,,,0.01,0,weatherlink.com 1.10,2013-01-14 03:30:00,
2013-01-13 22:45:00,65.9,60.0,30.04,SSW,200,2.0,9.0,82,0.00,,,0.01,0,weatherlink.com 1.10,2013-01-14 03:45:00,
2013-01-13 23:00:00,65.8,61.0,30.04,West,260,5.0,9.0,83,0.00,,,0.01,0,weatherlink.com 1.10,2013-01-14 04:00:00,
2013-01-13 23:15:00,65.5,60.0,30.04,SSE,168,1.0,10.0,83,0.00,,,0.01,0,weatherlink.com 1.10,2013-01-14 04:15:00,
2013-01-13 23:30:00,65.2,60.0,30.05,South,190,4.0,9.0,83,0.00,,,0.01,0,weatherlink.com 1.10,2013-01-14 04:30:00,
2013-01-13 23:45:00,65.2,60.0,30.04,SSW,202,1.0,13.0,84,0.00,,,0.01,0,weatherlink.com 1.10,2013-01-14 04:45:00,